SCP
0 0 0 0 0 0 0 0 0 0 0 0 0 0 0 0 0 0 0 0 0 0 0 0 0 0 0 0 0 0 0 0 0 0 0 0 0 0 0 0 0 0 0
0 0 0 0 0 0 0 0 0 0 0 0 0 0 0 0 0 0 0 0 0 0 0 0 0 0 0 0 0 0 0 0 0 0 0 0 0 0 0 0 0 0 0
1 0 0 0 0 0 0 0 0 0 0 0 0 0 0 0 0 0 0 0 0 0 0 0 0 0 0 0 0 0 0 0 0 0 0 0 0 0 0 0 0 0 0
1 1 0 0 0 0 0 1 0 0 0 0 0 0 0 0 0 0 0 0 0 0 0 0 0 0 0 0 0 0 0 0 0 0 0 0 0 0 0 0 0 0 0
1 1 0 0 0 0 0 0 0 0 0 0 0 0 0 0 0 0 0 0 0 0 0 0 0 0 0 0 0 0 0 0 0 0 0 0 0 0 0 0 0 0 0
0 0 0 0 0 0 0 0 0 0 0 0 0 0 0 0 0 0 0 0 0 0 0 0 0 0 0 0 0 0 0 0 0 0 0 0 0 0 0 0 0 0 0
0 0 0 0 0 0 0 0 0 0 0 0 0 0 0 0 0 0 0 0 0 0 0 0 0 0 0 0 0 0 0 0 0 0 0 0 0 0 0 0 0 0 0
0 0 0 0 0 0 0 0 0 0 0 0 0 0 0 0 0 0 0 0 0 0 0 0 0 0 0 0 0 0 0 0 0 0 0 0 0 0 0 0 0 0 0
0 0 0 0 0 0 0 0 0 0 0 0 0 0 0 0 0 0 0 0 0 0 0 0 0 0 0 0 0 0 0 0 0 0 0 0 0 0 0 0 0 0 0
0 0 0 0 0 0 0 0 0 0 0 0 0 0 0 0 0 0 0 0 0 0 0 0 0 0 0 0 0 0 0 0 0 0 0 0 0 0 0 0 0 0 0
0 0 0 0 0 0 0 0 0 0 0 0 0 0 0 0 0 0 0 0 0 0 0 0 0 0 0 0 0 0 0 0 0 0 0 0 0 0 0 0 0 0 0
0 0 0 0 0 0 0 0 0 0 0 0 0 0 0 0 0 0 0 0 0 0 0 0 0 0 0 0 0 0 0 0 0 0 0 0 0 0 0 0 0 0 0
0 0 0 0 0 0 0 0 0 0 0 0 0 0 0 0 0 0 0 0 0 0 0 0 0 0 0 0 0 0 0 0 0 0 0 0 0 0 0 0 0 0 0
0 0 0 0 0 0 0 0 0 0 0 0 0 0 0 0 0 0 0 0 0 0 0 0 0 0 0 0 0 0 0 0 0 0 0 0 0 0 0 0 0 0 0
0 0 0 0 0 0 0 0 0 0 0 0 0 0 0 0 0 0 0 0 0 0 0 0 0 0 0 0 0 0 0 0 0 0 0 0 0 0 0 0 0 0 0
0 0 0 0 0 0 0 0 0 0 0 0 0 0 0 0 0 0 0 0 0 0 0 0 0 0 0 0 0 0 0 0 0 0 0 0 0 0 0 0 0 0 0
0 0 0 0 0 0 0 0 0 0 0 0 0 0 0 0 0 0 0 0 0 0 0 0 0 0 0 0 0 0 0 0 0 0 0 0 0 0 0 0 0 0 0
0 0 0 0 0 0 0 0 0 0 0 0 0 0 0 0 0 0 0 0 0 0 0 0 0 0 0 0 0 0 0 0 0 0 0 0 0 0 0 0 0 0 0
0 0 0 0 0 0 0 0 0 0 0 0 0 0 0 0 0 0 0 0 0 0 0 0 0 0 0 0 0 0 0 0 0 0 0 0 0 0 0 0 0 0 0
0 0 0 0 0 0 0 0 0 0 0 0 0 0 0 0 0 0 0 0 0 0 0 0 0 0 0 0 0 0 0 0 0 0 0 0 0 0 0 0 0 0 0
0 0 0 0 0 0 0 0 0 0 0 0 0 0 0 0 0 0 0 0 0 0 0 0 0 0 0 0 0 0 0 0 0 0 0 0 0 0 0 0 0 0 0
0 0 0 0 0 0 0 0 0 0 0 0 0 0 0 0 0 0 0 0 0 0 0 0 0 0 0 0 0 0 0 0 0 0 0 0 0 0 0 0 0 0 0
0 0 0 0 0 0 0 0 0 0 0 0 0 0 0 0 0 0 0 0 0 0 0 0 0 0 0 0 0 0 0 0 0 0 0 0 0 0 0 0 0 0 0
0 0 0 0 0 0 0 0 0 0 0 0 0 0 0 0 0 0 0 0 0 0 0 0 0 0 0 0 0 0 0 0 0 0 0 0 0 0 0 0 0 0 0
0 0 0 0 0 0 0 0 0 0 0 0 0 0 0 0 0 0 0 0 0 0 0 0 0 0 0 0 0 0 0 0 0 0 0 0 0 0 0 0 0 0 0
0 0 0 0 0 0 0 0 0 0 0 0 0 0 0 0 0 0 0 0 0 0 0 0 0 0 0 0 0 0 0 0 0 0 0 0 0 0 0 0 0 0 0
Wind_Speed
3 4 4 5 6 6 6 8 9 9 11 11 11 12 12 12 11 11 11 11 12 10 9 10 9 7 6 5 4 4 4 4 5 3 2 2 2 2 1 1 2 2 2
3 3 4 4 5 6 7 7 7 7 9 10 11 12 12 12 12 12 13 12 13 12 11 10 10 7 8 6 5 5 5 4 4 5 3 2 3 2 2 1 1 1 2
3 3 3 4 4 5 6 6 7 7 7 8 10 11 11 12 12 12 12 12 11 11 10 10 10 9 9 6 6 6 4 4 3 4 3 2 1 1 1 1 1 1 2
3 3 4 4 4 4 5 5 6 7 7 8 9 9 9 10 11 11 11 11 10 9 9 9 9 10 9 8 7 7 5 4 4 3 3 2 1 1 1 1 2 2 2
4 4 5 3 3 3 3 5 5 6 7 8 8 8 8 9 9 10 10 10 10 9 9 9 9 10 10 9 7 7 7 5 4 3 3 2 2 1 2 2 2 2 2
4 5 5 3 3 3 3 3 4 5 5 7 8 8 8 7 10 12 10 9 9 10 9 8 8 9 10 12 12 11 10 8 6 5 4 4 4 4 2 2 1 1 2
4 5 5 4 3 3 3 2 3 4 5 6 7 7 8 8 11 12 12 10 9 9 9 8 6 7 9 8 9 9 9 9 9 7 6 5 5 5 4 3 3 3 3
4 5 5 4 4 3 3 2 3 3 4 5 6 6 7 7 10 12 12 10 8 8 8 8 8 8 8 8 6 5 4 3 4 4 4 4 3 3 4 4 3 1 0
5 5 5 5 5 4 3 3 3 2 3 5 6 6 6 7 9 11 11 7 7 7 7 8 8 8 10 11 8 6 4 2 3 5 5 4 4 4 4 3 2 1 1
5 6 6 5 5 4 4 4 3 3 3 4 5 5 6 6 8 10 11 6 7 6 5 6 9 10 12 12 8 7 6 4 4 4 4 4 3 3 3 2 3 2 1
5 5 5 5 4 4 4 3 2 2 3 4 4 4 5 5 7 9 10 6 7 7 6 6 6 12 13 13 9 7 8 7 5 4 3 2 2 2 1 1 1 2 2
4 4 5 5 4 4 3 3 2 2 3 3 4 3 3 4 6 7 8 8 8 7 6 5 7 13 13 12 8 9 12 8 4 4 3 2 2 1 1 1 1 1 1
4 5 5 5 4 4 3 3 2 1 2 2 3 3 3 2 4 6 7 6 7 5 5 8 10 12 12 9 10 12 10 5 5 4 3 2 1 2 1 1 2 2 2
4 4 4 5 5 4 3 2 1 1 1 2 3 3 3 3 3 4 4 4 5 4 4 8 11 11 8 8 9 7 4 4 5 4 3 2 2 2 1 1 1 0 1
4 4 4 4 4 4 3 2 2 2 2 3 3 3 4 4 5 6 5 4 4 5 6 5 5 5 5 5 4 4 4 4 4 3 4 3 2 2 1 0 1 0 0
3 4 3 4 4 3 2 3 3 3 4 4 4 4 3 4 6 6 7 6 7 10 7 6 6 6 6 6 6 5 4 4 4 4 4 3 3 2 2 1 1 1 0
4 4 3 3 3 3 2 2 3 4 4 3 2 3 3 4 6 7 8 8 9 10 5 6 6 6 6 6 6 5 4 4 4 4 4 3 3 3 2 2 1 1 0
4 4 4 3 3 2 2 2 1 2 3 3 2 1 2 4 6 7 9 7 5 4 4 5 5 5 6 6 6 5 5 5 4 4 4 3 3 3 3 2 2 1 1
3 3 3 2 3 2 1 1 1 2 2 2 2 1 1 3 5 8 8 4 5 4 3 4 4 5 5 6 5 5 5 5 5 4 4 4 3 3 3 2 2 2 1
3 4 4 3 2 1 1 1 1 1 2 1 1 1 1 2 3 3 2 3 3 3 3 4 4 4 5 5 6 6 5 5 5 4 4 4 3 3 3 3 2 2 1
2 3 5 3 2 2 2 2 2 2 2 2 2 2 3 2 3 3 3 3 3 4 4 4 4 5 4 5 5 6 7 5 5 5 4 4 4 3 3 3 2 2 1
2 3 3 3 2 2 2 2 2 2 2 2 2 2 3 2 2 3 2 2 2 3 4 4 4 4 4 5 5 6 6 6 6 5 5 4 4 3 3 3 3 2 2
2 3 3 3 2 3 3 2 2 2 3 2 2 2 1 1 2 2 2 3 3 3 3 3 4 4 3 3 4 5 6 6 6 7 6 5 4 4 4 3 4 3 2
3 3 3 3 3 2 2 2 2 3 3 2 2 2 2 2 2 2 2 3 3 3 3 3 4 5 6 4 3 3 3 4 5 6 8 7 6 4 4 4 3 4 3
3 3 3 3 3 2 2 2 3 3 2 2 2 2 2 2 2 2 2 3 4 4 4 3 4 5 6 6 5 4 7 8 7 6 6 6 6 6 5 5 4 4 4
3 3 3 3 3 3 3 3 3 2 2 2 2 2 3 3 3 3 3 3 3 4 4 3 5 5 6 5 6 9 10 10 10 10 6 6 7 6 6 5 6 5 5
Wind_Direction
272 266 255 247 225 213 206 208 207 206 198 196 197 193 191 190 189 192 196 189 195 198 196 199 206 196 193 192 190 192 197 189 223 244 213 200 182 197 221 223 228 233 254
296 285 269 270 238 214 210 211 206 208 201 198 195 195 194 192 190 194 196 194 197 201 199 199 204 195 198 193 191 197 199 195 202 230 226 198 205 209 211 221 253 253 255
312 305 285 276 260 236 218 212 207 207 204 198 194 197 195 192 191 196 197 196 198 200 197 199 201 194 200 195 191 195 198 195 195 205 226 206 203 195 208 254 268 272 272
304 304 284 265 268 261 238 216 209 206 203 200 195 195 196 192 193 193 194 194 195 197 196 198 198 198 199 192 194 197 191 190 189 196 214 209 209 191 163 229 271 277 281
312 309 294 280 285 282 264 227 211 208 205 195 194 194 196 193 192 189 192 192 192 194 195 198 198 196 195 192 191 190 186 190 186 196 211 208 209 188 213 206 238 282 272
316 308 309 303 294 293 278 256 216 207 204 191 192 193 197 199 190 187 189 191 189 192 194 195 192 191 192 191 191 188 187 189 194 197 208 215 219 211 198 194 196 233 266
319 313 314 315 303 294 278 267 231 214 199 197 195 197 200 198 188 187 189 190 188 192 193 190 189 189 186 189 191 191 193 194 194 196 205 215 209 202 185 193 206 216 230
321 321 321 320 307 298 286 267 259 236 202 199 198 198 201 198 189 190 186 190 189 191 192 190 187 185 185 177 170 172 178 190 195 193 198 205 198 185 185 190 189 184 205
321 321 323 324 309 300 292 273 266 245 218 202 196 195 198 197 188 186 180 186 186 189 188 187 184 183 177 164 162 161 153 135 105 123 127 126 129 138 141 127 135 135 242
313 314 318 320 311 297 291 281 267 233 227 207 199 195 196 197 187 184 180 183 182 183 181 184 183 178 170 163 164 164 168 163 137 114 102 93 98 117 127 161 174 178 201
310 314 315 316 313 303 298 289 263 232 224 208 195 193 194 193 186 183 184 187 184 181 182 183 181 171 169 169 168 173 167 152 146 138 128 113 95 85 71 63 148 176 187
314 315 315 320 319 315 307 301 265 227 208 191 182 187 187 184 185 188 188 194 188 183 185 180 171 166 166 166 165 155 146 139 139 138 140 143 135 121 86 65 68 81 180
319 318 319 321 317 316 304 290 270 230 195 187 184 184 185 184 184 184 185 186 184 187 177 166 161 159 158 159 154 148 145 146 146 149 161 166 152 148 134 93 58 57 44
309 311 314 319 319 321 304 277 248 234 210 197 189 187 183 186 179 174 176 167 160 155 147 145 145 144 141 143 145 144 147 154 154 156 150 139 132 134 136 123 117 68 43
301 303 307 309 308 313 303 285 275 248 228 229 210 197 189 199 197 186 179 177 172 164 142 133 140 144 147 146 141 142 143 143 139 137 138 139 141 138 137 114 103 90 119
295 298 300 305 309 311 313 330 332 308 302 285 250 230 226 215 191 185 180 170 162 159 150 155 160 163 164 161 158 156 154 152 147 144 148 151 154 157 153 124 76 106 162
272 282 290 296 306 309 317 328 334 345 341 315 269 231 211 196 187 179 167 158 161 158 156 163 167 168 164 160 160 161 160 152 145 147 151 153 153 155 157 152 140 116 157
271 277 281 286 297 298 301 299 296 307 320 329 327 253 193 185 176 164 153 144 156 160 161 166 167 165 161 160 159 156 148 145 145 149 151 152 154 156 157 160 170 171 180
273 275 279 286 292 282 292 294 290 287 287 291 322 327 172 157 152 157 154 161 167 168 161 159 159 158 159 158 156 154 153 153 153 153 155 156 158 156 156 161 164 153 131
271 276 282 283 282 270 281 276 272 271 273 264 248 235 136 131 145 159 165 162 162 159 156 154 153 155 156 155 155 153 151 152 154 155 158 159 158 157 159 159 158 158 175
263 276 282 286 267 255 253 253 254 259 257 257 249 225 203 176 172 171 169 167 163 159 155 153 154 155 155 153 153 155 155 158 159 160 158 158 155 152 156 153 149 142 130
247 257 262 263 260 258 252 244 244 251 253 251 245 215 201 165 164 165 162 158 153 151 152 156 157 158 160 160 157 157 160 160 160 158 155 153 151 149 146 144 141 135 130
241 254 261 258 259 264 269 254 245 245 246 233 216 205 184 156 155 155 152 148 142 140 141 146 147 147 144 145 152 160 165 168 167 161 154 151 150 150 149 147 146 141 137
234 241 246 249 253 246 247 255 251 248 236 216 199 188 172 150 138 145 150 147 141 138 141 146 148 149 146 144 144 145 149 150 152 155 154 152 149 147 145 144 142 140 137
229 235 237 240 246 244 243 253 252 245 232 214 193 173 158 150 146 144 146 144 138 137 140 141 140 142 145 146 148 147 146 145 144 144 144 143 143 144 143 141 138 132 126
228 230 235 235 239 236 235 243 242 230 223 210 191 177 166 161 157 151 145 140 138 140 140 138 138 143 145 143 143 144 143 142 141 139 142 141 140 139 137 132 131 128 127